When you browse on this site, cookies collect data to enhance your experience and personalize the content and advertising you see.
Visit our Privacy Policy to learn more. By continuing to use the site, you agree to this use of cookies and data.
  • In France
  • List of Countries
  • For 7 days
  • Water Temperature
  • Weather Map
  • Weather Widgets
  • user-avatar
    Login

    Hourly Weather Masvingo

    Today, 26 August, Monday

    Time Temperature Precipitation Wind Pressure Humidity
    00:00 +16°C° 0 mm 2 mps 674 mmHg 55%
    01:00 +16°C° 0 mm 2 mps 674 mmHg 59%
    02:00 +16°C° 0 mm 1 mps 674 mmHg 64%
    03:00 +15°C° 0 mm 1 mps 674 mmHg 69%
    04:00 +15°C° 0 mm 1 mps 674 mmHg 73%
    05:00 +15°C° 0 mm 1 mps 673 mmHg 78%
    06:00 +18°C° 0 mm 1 mps 674 mmHg 69%
    07:00 +20°C° 0 mm 1 mps 675 mmHg 59%
    08:00 +20°C° 0 mm 2 mps 676 mmHg 50%
    09:00 +25°C° 0 mm 1 mps 676 mmHg 40%
    10:00 +28°C° 0 mm 1 mps 677 mmHg 31%
    11:00 +31°C° 0 mm 1 mps 677 mmHg 21%
    12:00 +32°C° 0 mm 1 mps 676 mmHg 19%
    13:00 +33°C° 0 mm 1 mps 676 mmHg 18%
    14:00 +33°C° 0 mm 1 mps 675 mmHg 16%
    15:00 +32°C° 0 mm 2 mps 674 mmHg 17%
    16:00 +31°C° 0 mm 2 mps 674 mmHg 18%
    17:00 +30°C° 0 mm 3 mps 673 mmHg 19%
    18:00 +28°C° 0 mm 3 mps 674 mmHg 24%
    19:00 +26°C° 0 mm 3 mps 674 mmHg 29%
    20:00 +23°C° 0 mm 2 mps 674 mmHg 34%
    21:00 +21°C° 0 mm 2 mps 673 mmHg 36%
    22:00 +21°C° 0 mm 2 mps 673 mmHg 38%
    23:00 +20°C° 0 mm 2 mps 673 mmHg 40%

    Tomorrow, 27 August, Tuesday

    Time Temperature Precipitation Wind Pressure Humidity
    00:00 +19°C° 0 mm 2 mps 673 mmHg 43%
    01:00 +19°C° 0 mm 2 mps 673 mmHg 46%
    02:00 +18°C° 0 mm 2 mps 673 mmHg 49%
    03:00 +18°C° 0 mm 2 mps 672 mmHg 51%
    04:00 +17°C° 0 mm 2 mps 672 mmHg 52%
    05:00 +17°C° 0 mm 2 mps 672 mmHg 54%
    06:00 +19°C° 0 mm 2 mps 673 mmHg 49%
    07:00 +21°C° 0 mm 2 mps 674 mmHg 44%
    08:00 +24°C° 0 mm 2 mps 675 mmHg 39%
    09:00 +27°C° 0 mm 2 mps 675 mmHg 33%
    10:00 +30°C° 0 mm 2 mps 675 mmHg 27%
    11:00 +33°C° 0 mm 1 mps 676 mmHg 21%
    12:00 +34°C° 0 mm 2 mps 675 mmHg 19%
    13:00 +35°C° 0 mm 2 mps 674 mmHg 18%
    14:00 +35°C° 0 mm 2 mps 674 mmHg 16%
    15:00 +34°C° 0 mm 3 mps 673 mmHg 17%
    16:00 +33°C° 0 mm 3 mps 673 mmHg 18%
    17:00 +30°C° 0 mm 4 mps 673 mmHg 19%
    18:00 +28°C° 0 mm 3 mps 673 mmHg 22%
    19:00 +26°C° 0 mm 3 mps 673 mmHg 24%
    20:00 +24°C° 0 mm 2 mps 673 mmHg 27%
    21:00 +24°C° 0 mm 3 mps 673 mmHg 30%
    22:00 +22°C° 0 mm 3 mps 673 mmHg 34%
    23:00 +21°C° 0 mm 3 mps 673 mmHg 37%

    Day after tomorrow, 28 August, Wednesday

    Time Temperature Precipitation Wind Pressure Humidity
    00:00 +21°C° 0 mm 3 mps 672 mmHg 40%
    01:00 +20°C° 0 mm 3 mps 672 mmHg 43%
    02:00 +20°C° 0 mm 2 mps 672 mmHg 46%
    03:00 +19°C° 0 mm 2 mps 671 mmHg 47%
    04:00 +19°C° 0 mm 2 mps 671 mmHg 48%
    05:00 +18°C° 0 mm 2 mps 671 mmHg 49%
    06:00 +20°C° 0 mm 2 mps 672 mmHg 43%
    07:00 +22°C° 0 mm 3 mps 673 mmHg 38%
    08:00 +25°C° 0 mm 3 mps 674 mmHg 33%
    09:00 +28°C° 0 mm 2 mps 674 mmHg 28%
    10:00 +31°C° 0 mm 2 mps 674 mmHg 23%
    11:00 +34°C° 0 mm 2 mps 675 mmHg 17%
    12:00 +34°C° 0 mm 3 mps 674 mmHg 17%
    13:00 +34°C° 0 mm 3 mps 673 mmHg 17%
    14:00 +33°C° 0 mm 4 mps 672 mmHg 17%
    15:00 +33°C° 0 mm 4 mps 672 mmHg 18%
    16:00 +31°C° 0 mm 3 mps 672 mmHg 18%
    17:00 +31°C° 0 mm 3 mps 672 mmHg 19%
    18:00 +29°C° 0 mm 3 mps 672 mmHg 22%
    19:00 +26°C° 0 mm 4 mps 672 mmHg 26%
    20:00 +23°C° 0 mm 4 mps 672 mmHg 29%
    21:00 +22°C° 0 mm 4 mps 672 mmHg 31%
    22:00 +22°C° 0 mm 3 mps 672 mmHg 33%
    23:00 +21°C° 0 mm 3 mps 672 mmHg 35%

    29 August, Thursday

    Time Temperature Precipitation Wind Pressure Humidity
    00:00 +20°C° 0 mm 3 mps 672 mmHg 38%
    01:00 +19°C° 0 mm 3 mps 672 mmHg 41%
    02:00 +19°C° 0 mm 2 mps 671 mmHg 44%
    03:00 +18°C° 0 mm 2 mps 671 mmHg 46%
    04:00 +18°C° 0 mm 2 mps 671 mmHg 48%
    05:00 +18°C° 0 mm 2 mps 671 mmHg 51%
    06:00 +20°C° 0 mm 2 mps 672 mmHg 46%
    07:00 +23°C° 0 mm 2 mps 673 mmHg 41%
    08:00 +24°C° 0 mm 1 mps 674 mmHg 36%
    09:00 +27°C° 0 mm 2 mps 675 mmHg 31%
    10:00 +29°C° 0 mm 3 mps 675 mmHg 25%
    11:00 +32°C° 0 mm 4 mps 675 mmHg 20%
    12:00 +32°C° 0 mm 4 mps 674 mmHg 19%
    13:00 +33°C° 0 mm 5 mps 674 mmHg 19%
    14:00 +33°C° 0 mm 5 mps 673 mmHg 18%
    15:00 +32°C° 0 mm 5 mps 673 mmHg 20%
    16:00 +30°C° 0 mm 5 mps 672 mmHg 22%
    17:00 +29°C° 0 mm 5 mps 672 mmHg 24%
    18:00 +27°C° 0 mm 5 mps 672 mmHg 29%
    19:00 +25°C° 0 mm 5 mps 673 mmHg 34%
    20:00 +22°C° 0 mm 5 mps 673 mmHg 40%
    21:00 +21°C° 0 mm 4 mps 673 mmHg 43%
    22:00 +20°C° 0 mm 4 mps 672 mmHg 46%
    23:00 +19°C° 0 mm 3 mps 672 mmHg 50%

    30 August, Friday

    Time Temperature Precipitation Wind Pressure Humidity
    00:00 +18°C° 0 mm 3 mps 672 mmHg 52%
    01:00 +18°C° 0 mm 2 mps 671 mmHg 55%
    02:00 +17°C° 0 mm 2 mps 671 mmHg 57%
    03:00 +17°C° 0 mm 2 mps 671 mmHg 58%
    04:00 +17°C° 0 mm 2 mps 671 mmHg 60%
    05:00 +16°C° 0 mm 2 mps 671 mmHg 61%
    06:00 +19°C° 0 mm 2 mps 671 mmHg 52%
    07:00 +21°C° 0 mm 2 mps 672 mmHg 44%
    08:00 +24°C° 0 mm 2 mps 673 mmHg 36%
    09:00 +27°C° 0 mm 2 mps 673 mmHg 28%
    10:00 +30°C° 0 mm 3 mps 673 mmHg 21%
    11:00 +34°C° 0 mm 3 mps 674 mmHg 13%
    12:00 +35°C° 0 mm 3 mps 673 mmHg 13%
    13:00 +35°C° 0 mm 3 mps 672 mmHg 13%
    14:00 +36°C° 0 mm 3 mps 671 mmHg 12%
    15:00 +35°C° 0 mm 3 mps 671 mmHg 13%
    16:00 +34°C° 0 mm 4 mps 670 mmHg 13%
    17:00 +33°C° 0 mm 4 mps 670 mmHg 14%
    18:00 +30°C° 0 mm 4 mps 670 mmHg 18%
    19:00 +27°C° 0 mm 4 mps 670 mmHg 22%
    20:00 +25°C° 0 mm 4 mps 670 mmHg 25%
    21:00 +23°C° 0 mm 4 mps 670 mmHg 27%
    22:00 +23°C° 0 mm 4 mps 670 mmHg 28%
    23:00 +22°C° 0 mm 4 mps 670 mmHg 30%

    31 August, Saturday

    Time Temperature Precipitation Wind Pressure Humidity
    00:00 +22°C° 0 mm 4 mps 669 mmHg 31%
    01:00 +21°C° 0 mm 4 mps 669 mmHg 33%
    02:00 +20°C° 0 mm 3 mps 669 mmHg 34%
    03:00 +20°C° 0 mm 4 mps 669 mmHg 35%
    04:00 +20°C° 0 mm 4 mps 669 mmHg 37%
    05:00 +20°C° 0 mm 4 mps 669 mmHg 38%
    06:00 +22°C° 0 mm 4 mps 669 mmHg 35%
    07:00 +25°C° 0 mm 4 mps 670 mmHg 31%
    08:00 +27°C° 0 mm 4 mps 670 mmHg 28%
    09:00 +30°C° 0 mm 4 mps 670 mmHg 22%
    10:00 +34°C° 0 mm 3 mps 670 mmHg 17%
    11:00 +37°C° 0 mm 3 mps 670 mmHg 11%
    12:00 +38°C° 0 mm 3 mps 669 mmHg 11%
    13:00 +38°C° 0 mm 3 mps 669 mmHg 10%
    14:00 +39°C° 0 mm 3 mps 668 mmHg 10%
    15:00 +38°C° 0 mm 2 mps 668 mmHg 11%
    16:00 +38°C° 0 mm 2 mps 668 mmHg 11%
    17:00 +36°C° 0 mm 1 mps 667 mmHg 12%
    18:00 +33°C° 0 mm 1 mps 668 mmHg 14%
    19:00 +31°C° 0 mm 1 mps 668 mmHg 17%
    20:00 +28°C° 0 mm 1 mps 668 mmHg 19%
    21:00 +28°C° 0 mm 2 mps 668 mmHg 20%
    22:00 +27°C° 0 mm 2 mps 669 mmHg 21%
    23:00 +26°C° 0 mm 2 mps 669 mmHg 22%
    Show more